Location: Newark
(40.4667°N, 5.6000°W)
Time: 21:28:37
(UTC+00:00)

A-11 Canister half - Pass Details

Date: 27 November 2019
Orbit: 1526 x 1683 km, 47.3° (Epoch: 10 December)

Event Time Altitude Azimuth Distance (km) Brightness Sun altitude
Rises 18:00:07 0° 293° (WNW) 4,815 12.4 -11.8°
Reaches altitude 10° 18:04:08 10° 280° (W) 3,799 12.1 -12.5°
Maximum altitude 18:10:57 22° 234° (SW) 2,893 11.4 -13.7°
Drops below altitude 10° 18:17:39 10° 187° (S) 3,710 11.3 -14.9°
Sets 18:21:32 0° 173° (S) 4,674 11.6 -15.7°
